Flag for Russia Weather past 2 weeks in Bryansk, Russia

Now
34 °F

Clear.


Feels Like: 29 °F
Forecast: 41 / 56 °F
Wind: 6 mph from Northwest

Location: Brjansk

Current Time: Apr 22, 2015 at 4:46:15 AM

Latest Report: Apr 22, 2015 at 4:00 AM


Visibility: 10 mi

Pressure: 29.89 "Hg

Humidity: 81%

Dew point: 28 °F

Location of BryanskLocation

Historic Weather in Bryansk — Graph

°F

Bryansk temperature yesterday

Maximum temperature yesterday: 48 °F (at 4:00 PM)
Minimum temperature yesterday: 27 °F (at 1:00 AM)
Average temperature yesterday: 37 °F

Past Weeks' High & Low Weather Summary

 TemperatureHumidityPressure
High72 °F (Apr 12, 4:00 PM)100% (Apr 7, 4:00 AM)30.18 "Hg (Apr 7, 4:00 AM)
Low23 °F (Apr 20, 4:00 AM)19% (Apr 12, 4:00 PM)29.33 "Hg (Apr 16, 1:00 PM)
Average43 °F59%29.80 "Hg
* Reported Apr 7 3:00 AM — Apr 22 3:00 AM, Bryansk, Weather by CustomWeather, © 2015

Note: Actual official high and low records may vary slightly from our data, if they occured in-between our weather recording intervals... More about our weather records

Advertising

Bryansk weather history for previous 24 hours

 ConditionsComfort  
Time TempWeatherWind HumidityBarometerVisibility
3:00 AM
Wed, Apr 22
34 °FClear.8 mph81%29.89 "Hg10 mi
2:00 AM36 °FClear.10 mph75%29.89 "Hg10 mi
1:00 AM37 °FClear.10 mph70%29.89 "Hg10 mi
12:00 AM37 °FClear.8 mph70%29.86 "Hg10 mi
11:00 PM
Tue, Apr 21
37 °FPassing clouds.8 mph70%29.86 "HgN/A
10:00 PM36 °FPassing clouds.6 mph75%29.86 "HgN/A
9:00 PM41 °FPassing clouds.6 mph66%29.83 "HgN/A
8:00 PM41 °FScattered clouds.6 mph66%29.80 "HgN/A
7:00 PM39 °FPartly sunny.6 mph75%29.80 "HgN/A
6:00 PM46 °FPartly sunny.13 mph46%29.77 "HgN/A
5:00 PM45 °FPartly sunny.15 mph49%29.74 "HgN/A
4:00 PM48 °FScattered clouds.10 mph37%29.74 "HgN/A
3:00 PM46 °FScattered clouds.10 mph40%29.74 "HgN/A
2:00 PM43 °FScattered clouds.15 mph49%29.74 "HgN/A
1:00 PM46 °FScattered clouds.10 mph40%29.71 "HgN/A
12:00 PM43 °FPartly sunny.17 mph46%29.71 "HgN/A
11:00 AM43 °FPartly sunny.15 mph49%29.71 "HgN/A
10:00 AM41 °FScattered clouds.13 mph57%29.71 "HgN/A
9:00 AM37 °FScattered clouds.17 mph65%29.71 "HgN/A
8:00 AM32 °FSnow flurries. Partly sunny.13 mph80%29.68 "Hg4 mi
7:00 AM30 °FPartly sunny.10 mph80%29.68 "HgN/A
6:00 AM30 °FSnow flurries. Passing clouds.10 mph75%29.68 "HgN/A
5:00 AM30 °FPassing clouds.13 mph75%29.68 "HgN/A
4:00 AM30 °FPassing clouds.8 mph75%29.68 "HgN/A
Weather by CustomWeather, © 2015

See weather overviewHow to use our weather pages